Other Public Products
Issued by NWS Grand Forks, ND

Home | Current Version | Previous Version | Graphics & Text | Print | Product List | Glossary On
Versions: 1 2 3 4 5 6 7 8 9 10 11 12 13 14 15 16 17 18 19 20 21 22 23 24 25 26 27 28 29 30 31 32 33 34 35 36 37 38 39 40 41 42 43 44 45 46 47 48 49 50
000
FPUS83 KFGF 211531
OPUFGF
PRAIRIE TO PINES WEATHER ROUNDUP
NATIONAL WEATHER SERVICE EASTERN NORTH DAKOTA/GRAND FORKS ND
900 AM CST TUE FEB 21 2017

 **SATELLITE DATA USED TO AUGMENT SKY COVER AT AUTOMATED STATIONS**
 *****  WEATHER ACROSS EASTERN NORTH DAKOTA  *****

CITY           SKY/WX    TMP DP  RH WIND       PRES   REMARKS
GRAND FORKS    FAIR      33  29  85 SE7       29.70F FOG
GRAND FORKS AF FAIR      32  32  99 SE3       29.70S FOG
GRAND CITY NWS NOT AVBL
BUXTON         NOT AVBL
DEVILS LAKE    FAIR      31  29  92 SE5       29.66S
FARGO          FAIR      39  33  79 S10       29.69S
WAHPETON ARPT    N/A     36  32  87 SE5       29.72S
$$

 *****  WEATHER ACROSS CENTRAL AND WESTERN NORTH DAKOTA  *****

CITY           SKY/WX    TMP DP  RH WIND       PRES   REMARKS
JAMESTOWN      FAIR      35  31  85 W6        29.65S
BISMARCK       FAIR      33  30  88 SE5       29.70R
MINOT          FLURRIES  34  30  85 S5        29.64S
MINOT AFB      FAIR      28  26  90 CALM      29.64S
GARRISON         N/A     31  27  85 SW6       29.67R
WILLISTON      FAIR      34  29  82 CALM      29.66S
DICKINSON      FAIR      39  30  70 SW6       29.68R
HETTINGER      PTSUNNY   36  30  79 CALM      29.74R
$$

 *****  OTHER OBSERVATIONS NORTHEAST NORTH DAKOTA  *****

CITY           SKY/WX    TMP DP  RH WIND       PRES   REMARKS
WALHALLA       NOT AVBL
LANGDON        NOT AVBL
CAVALIER       FOG       32  32 100 E5        29.71F VSB<1/4
GRAFTON        FAIR      30  30 100 E7        29.71F FOG     WCI  23
CANDO          NOT AVBL
FORT TOTTEN      N/A     39  38  97 S3        29.95S
ROLLA          FAIR      30  30 100 N7        29.67S WCI  23
RUGBY            N/A     28  27  93 E6        29.66S WCI  22
 ***** THE ABOVE OBSERVATIONS ARE NON NWS ARE NOT QUALITY
        CONTROLLED AND MAY MIS-REPORT RAIN FOR SNOW...
$$

 *****  OTHER OBSERVATIONS SOUTHEAST NORTH DAKOTA *****

CITY           SKY/WX    TMP DP  RH WIND       PRES   REMARKS
COOPERSTOWN    FAIR      34  34 100 S5        29.66F
VALLEY CITY    FAIR      36  36 100 SW3       29.68F
OAKES          NOT AVBL
GWINNER        FAIR      39  36  87 SW12      29.69S
SHEYENNE NWR     N/A     36  33  90 S5        29.95S
BUFFALO        NOT AVBL
WYNDMERE         N/A     39  37  93 SE2         N/A
 ***** THE ABOVE OBSERVATIONS ARE NON NWS ARE NOT QUALITY
       CONTROLLED AND MAY MIS-REPORT RAIN FOR SNOW...
$$

  *****  WEATHER ACROSS NORTHERN MINNESOTA  *****

CITY           SKY/WX    TMP DP  RH WIND       PRES   REMARKS
FLAG ISLAND    FOG       30  30 100 SW9       29.75R VSB 1/2 WCI  22
WARROAD        CLOUDY    32  28  86 CALM      29.75F FOG
ROSEAU         HAZE      32  27  80 CALM      29.74F VSB 1/4
HALLOCK        FAIR      34  32  93 NE8       29.70F FOG
THF RVR FALLS  FAIR      36  34  93 E7        29.72S FOG
HALSTAD          N/A     35  32  89 E3          N/A
FOSSTON        FAIR      34  34 100 E3        29.72F FOG
BAUDETTE       CLOUDY    32  31  96 S3        29.76R
WASKISH        FOG       34  34 100 CALM      29.75F VSB 1/4
CROOKSTON      FAIR      36  36 100 SE6       29.72S FOG
$$
  *****  WEATHER ACROSS CENTRAL AND WEST MINNESOTA  *****

CITY           SKY/WX    TMP DP  RH WIND       PRES   REMARKS
BEMIDJI        CLOUDY    32  32 100 E6        29.74S FOG
PARK RAPIDS    FAIR      33  31  92 SE8       29.74F FOG
WADENA         FAIR      36  34  93 E5        29.75F
DETROIT LAKES  FAIR      36  32  87 SE9       29.71F
MOORHEAD       FAIR      37  32  81 S12       29.70R
FERGUS FALLS   FAIR      39  34  81 SE9       29.76S
ELBOW LAKE     FAIR      38  35  86 S14       29.72S
MORRIS MN      FAIR      39  36  87 S12       29.73F
STAPLES        FAIR      32  32 100 SE5       29.77F FOG
WHEATON        FAIR      39  34  81 S12       29.74R
$$
  *****  WEATHER ELSEWHERE ACROSS MINNESOTA  *****

CITY           SKY/WX    TMP DP  RH WIND       PRES   REMARKS
DULUTH         FOG       34  34 100 W12       29.80F VSB 1/4
INTRNTL FALLS  CLOUDY    33  30  88 SW9       29.77R FOG
ELY            CLOUDY    34  32  93 W7        29.78R
CLOQUET        FOG       34  34 100 SW6       29.82R VSB 1/2
BRAINERD       FOG       31  31 100 SE6       29.81F VSB 1/4
HIBBING        CLOUDY    33  33 100 SW3       29.79S FOG
ALEXANDRIA     FAIR      39  32  76 S13       29.76F
SAINT CLOUD    FOG       31  31 100 SE7       29.84S VSB 1/4 WCI  24
MINNEAPOLIS    FOG       34  33  96 SE7       29.89F VSB 1/2
$$

  *****  WEATHER ACROSS SOUTH DAKOTA  *****

CITY           SKY/WX    TMP DP  RH WIND       PRES   REMARKS
SIOUX FALLS    FAIR      47  36  65 SW16G25   29.83S
BROOKINGS      FAIR      42  34  73 S13       29.79S
WATERTOWN      FAIR      39  33  79 S10       29.75S
HURON          FAIR      42  32  67 S6        29.76S
SISSETON         N/A     45  35  68 VRB3      29.70S
ABERDEEN       FAIR      38  31  76 S5        29.72R
MITCHELL       FAIR      47  31  53 SW13      29.79F
PIERRE         FAIR      48  33  56 W8        29.74S
MOBRIDGE       FAIR      41  32  70 N6        29.69R
RAPID CITY     FAIR      56  34  43 N5        29.75S
$$

  *****  SOME WEATHER IN NEARBY STATES *****

CITY           SKY/WX    TMP DP  RH WIND       PRES   REMARKS
GLASGOW MT     FAIR      36  32  85 CALM      29.65F
GREAT FALLS MT MOCLDY    37  31  78 S5        29.61F
CHEYENNE WY    FAIR      50  25  37 W25G39    30.04R
SCOTTSBLUFF NE FAIR      50  29  44 N3        29.93R
OMAHA NE       FAIR      40  38  93 S6        30.00F
DES MOINES IA  FAIR      45  42  89 S6        29.98S
DAVENPORT IA   FAIR      47  45  93 N3        29.96S
CHICAGO IL     CLOUDY    57  54  89 W8        29.94R FOG
EAU CLAIRE WI  CLOUDY    37  35  92 S7        29.90S FOG
LA CROSSE WI   FAIR      41  38  89 SE5       29.94S
$$

  *****  SOME NATIONAL WEATHER *****

CITY           SKY/WX    TMP DP  RH WIND       PRES   REMARKS
LA GUARDIA NY  PTSUNNY   40  22  48 NE8       30.38S
RALEIGH NC     CLOUDY    54  34  46 E7        30.28F
ATLANTA GA     PTSUNNY   59  49  69 SE10      30.11S
NEW ORLEANS LA CLOUDY    62  60  93 SW6       30.00R
OKLAHOMA CITY  FAIR      51  44  77 NW15      30.01R
ALBUQUERQUE NM FAIR      45  33  63 N8        30.37R
SALT LAKE CITY FAIR      52  38  58 S18G30    30.04S
LOS ANGELES CA MOCLDY    58  56  93 CALM      30.29S
BOISE ID       FAIR      49  32  52 S16G26    29.86R
SEATTLE WA     LGT RAIN  42  40  92 N9        29.75R FOG
$$

*** WEATHER ACROSS MANITOBA...SASKATCHEWAN AND ONTARIO ***
                ***ONTARIO***

CITY           SKY/WX    TMP DP  RH WIND       PRES   REMARKS
GERALDTON      LGT RAIN  36  32  87 W24G35    29.56R FOG
THUNDER BAY    PTSUNNY   37  32  81 W13G22    29.73R
SIOUX LOOKOUT  CLOUDY    34  28  80 W12G20    29.66S
TORONTO        CLOUDY    39  27  60 S3        30.02F
BIG TROUT LK   LGT SNOW  30  27  86 W23G35    29.34R WCI  17
PICKLE LAKE    CLOUDY    32  30  93 W17G31    29.51R WCI  21
DRYDEN         CLOUDY    34  32  93 SW10      29.69R
KENORA         CLOUDY    32  30  93 SW8       29.71S WCI  25
$$
                *** MANITOBA***

CITY           SKY/WX    TMP DP  RH WIND       PRES   REMARKS
BRANDON        PTSUNNY   32  32 100 E3        29.69R
DAUPHIN        CLOUDY    34  30  86 W7        29.68S
ISLAND LAKE    FLURRIES  27  25  93 W21G26    29.52R WCI  13
PILOT MOUND      N/A     32  30  93 E7          N/A
THE PAS        CLOUDY    30  23  74 NW10      29.65S WCI  21
THOMPSON       CLOUDY    18  14  86 W13       29.52R WCI   4
WINNIPEG       LGT SNOW  34  32  93 S7        29.72F
LYNN LAKE      FLURRIES  16  14  93 NW9       29.55S WCI   4
CHURCHILL      SNOW      12  10  92 NE21G29   29.45F VSB 1/2 WCI  -6
GILLAM         FLURRIES  10   5  79 NW16G23   29.42R WCI  -7
$$
                ***SASKATCHEWAN***

CITY           SKY/WX    TMP DP  RH WIND       PRES   REMARKS
ESTEVAN        PTCLDY    28  28 100 S7        29.64R WCI  21
KINDERSLEY     MOCLDY    28  27  93 NE3       29.68R
LLOYDMINSTER   CLOUDY    28  27  93 CALM      29.67R
PRINCE ALBERT  CLOUDY    30  27  86 W3        29.68S
REGINA         MOCLDY    32  30  93 NE12      29.64R WCI  23
YORKTON        CLOUDY    30  28  93 SW5       29.66S FO


USA.gov is the U.S. government's official web portal to all federal, state and local government web resources and services.